Overview Statistics Trail Chart Weather Telemetry Raw packets
 

This is the latest recevied weather packets stored in our database for station/object YO8RBY-2. If no packets are shown the sender has not sent any weather packets the latest 10 day(s).

<< 7 8 9 10 11 12 13 >>
Time Temp. Humidity Pressure Rain* Wind** Luminosity Snow
1788061653 21.11° C 64% 976 hPa - - 0 W/m² -
1788059834 21.67° C 63% 976 hPa - - 0 W/m² -
1788058005 21.67° C 64% 975 hPa - - 0 W/m² -
1788056181 21.11° C 66% 976 hPa - - 0 W/m² -
1788054357 21.67° C 64% 976 hPa - - 0 W/m² -
1788052533 21.11° C 67% 976 hPa - - 0 W/m² -
1788050708 20.56° C 69% 976 hPa - - 0 W/m² -
1788048884 21.67° C 64% 975 hPa - - 0 W/m² -
1788047060 21.67° C 64% 976 hPa - - 0 W/m² -
1788045236 22.22° C 62% 976 hPa - - 0 W/m² -
1788043412 21.67° C 63% 976 hPa - - 0 W/m² -
1788041588 21.67° C 61% 975 hPa - - 0 W/m² -
1788039763 22.22° C 57% 975 hPa - - 0 W/m² -
1788037939 22.78° C 51% 975 hPa - - 0 W/m² -
1788036115 22.78° C 50% 974 hPa - - 0 W/m² -
1788034291 22.22° C 51% 974 hPa - - 0 W/m² -
1788030643 25° C 43% 974 hPa - - 0 W/m² -
1788028818 25.56° C 40% 974 hPa - - 0 W/m² -
1788026994 26.11° C 38% 974 hPa - - 0 W/m² -
1788025170 27.22° C 35% 973 hPa - - 0 W/m² -
1788023346 28.89° C 33% 974 hPa - - 0 W/m² -
1788021521 30.56° C 29% 973 hPa - - 0 W/m² -
1788019697 34.44° C 24% 973 hPa - - 0 W/m² -
1788017873 37.78° C 20% 973 hPa - - 0 W/m² -
1788016049 41.67° C 17% 973 hPa - - 0 W/m² -

* Rain since midnight (hover to see other rain measurements)
** Current wind speed in m/s (hover to see current wind gust speed)